Simultaneous Nadir Overpasses (SNOs) Predictions

Prediction of SNOs between GOES-16 and AQUA Satellite Orbit:

Table of predicted SNOs for the next 14.0 days since TLE Epoch: 6/15/2019
Index Date Time (GOES-16) GOES-16 Lat,Lon AQUA Lat,Lon Distance(km) Time Diff (sec)
1 06/16/2019 18:29:16 -0.01, -75.17 0.44, -73.14 231.24 80
2 06/17/2019 06:50:31 0.01, -75.18 0.64, -78.30 354.59 80
3 06/19/2019 06:38:19 0.00, -75.16 0.01, -75.34 20.16 80
4 06/21/2019 06:23:27 -0.00, -75.15 -0.61, -72.38 315.30 80
5 06/21/2019 18:44:51 0.00, -75.14 -0.52, -77.57 276.23 80
6 06/23/2019 18:35:19 0.01, -75.14 0.12, -74.62 60.01 80
7 06/25/2019 18:23:07 0.01, -75.15 0.76, -71.66 396.96 80
8 06/26/2019 06:44:22 -0.01, -75.16 0.34, -76.81 188.05 80
9 06/28/2019 06:29:30 -0.01, -75.17 -0.29, -73.86 149.41 80
10 06/28/2019 18:50:54 0.01, -75.16 -0.82, -79.05 441.70 80




NCC Satellite Simultaneous Nadir Overpasses (SNOs) Prediction Service
